Regional Weather Roundup
Issued by NWS

Home | Current Version | Previous Version | Text Only | Print | Product List | Glossary Off
Versions: 1 2 3 4 5 6 7 8 9 10 11 12 13 14 15 16 17 18 19 20 21 22 23 24 25 26 27 28 29 30 31 32 33 34 35 36 37 38 39 40 41 42 43 44 45 46 47 48 49 50

000
ASUS43 KMPX 192001
RWRMN
WEATHER ROUNDUP FOR MINNESOTA
NATIONAL WEATHER SERVICE TWIN CITIES/CHANHASSEN MN
200 PM CST MON FEB 19 2018


NOTE: "FAIR" INDICATES FEW OR NO CLOUDS BELOW 12,000 FEET WITH NO
SIGNIFICANT WEATHER AND/OR OBSTRUCTIONS TO VISIBILITY. N/A MEANS
CURRENT SKY AND/OR WEATHER CONDITIONS ARE NOT AVAILABLE.

MNZ060>063-068>070-192100-
   Twin Cities Metro

CITY           SKY/WX    TMP DP  RH WIND       PRES   REMARKS
TWIN CITIES    LGT SNOW  22  19  89 NE17G29   29.85F FOG     WCI   8
ST PAUL        LGT SNOW  23  19  85 NE14G31   29.87F VSB 1   WCI  11
CRYSTAL        LGT SNOW  21  17  84 NE14G22   29.87S FOG     WCI   8
BLAINE         LGT SNOW  23  19  86 NE20G25   29.86F WCI   8
LAKEVILLE      CLOUDY    21  19  93 NE15G25   29.82S FOG     WCI   8
EDEN PRAIRIE   MIX PCPN  22  17  81 NE18G28   29.83F WCI   7
SOUTH ST PAUL  LGT SNOW  24  20  85 N13G23    29.85F WCI  12
LAKE ELMO      LGT SNOW  23  21  93 NE14G21   29.86F WCI  11
$$
MNZ001>005-007-008-013>017-022>024-027-028-192100-
   Northwest Minnesota

CITY           SKY/WX    TMP DP  RH WIND       PRES   REMARKS
BEMIDJI        FAIR      10  -1  60 NE12      30.07F WCI  -4
HALLOCK        FAIR       7  -9  47 N10       30.25S WCI  -8
WARROAD        FAIR       7  -2  66 NE9       30.20F WCI  -7
THIEF RVR FALL FAIR       9  -4  55 N15       30.18F WCI  -8
CROOKSTON      FAIR       9  -2  61 N14G21    30.20F WCI  -8
FOSSTON        FAIR      12   0  57 NE13G20   30.11F WCI  -3
DETROIT LAKES  FAIR      16   1  53 NE10      30.05S WCI   3
MOORHEAD       FAIR      10   0  61 N20G25    30.13F WCI  -8
PARK RAPIDS    CLOUDY    13   0  56 NE12G22   30.03S WCI  -1
MAHNOMEN       MOCLDY    10   1  68 NE18      30.09F WCI  -8
$$
MNZ006-009>011-018-025>026-192100-
   North Central Minnesota

CITY           SKY/WX    TMP DP  RH WIND       PRES   REMARKS
BAUDETTE       FAIR       6  -4  63 W8        30.16F WCI  -7
FLAG ISLAND    FAIR       5  -9  51 N13       30.20F WCI -12
INTL FALLS     FAIR      10  -3  55 NE10      30.16F WCI  -4
WASKISH        FAIR      12   0  57 N13       30.13F WCI  -3
BIG FORK       FAIR      12   1  62 NE8       30.09F WCI   1
LONGVILLE      FAIR      12   0  57 N9        30.05S WCI   0
GRAND RAPIDS   CLOUDY    11   0  61 NE10G16   30.07F WCI  -3
CRANE LAKE     FAIR      10   0  61 N7        30.16F WCI   0
ORR            PTSUNNY   10  -2  56 CALM      30.09R
COOK             N/A     10   1  67 N7        30.10S WCI   0
WALKER         CLOUDY    11  -2  55 NE9       30.06F WCI  -1
$$
MNZ012-019>021-037-192100-
   Northeast Minnesota

CITY           SKY/WX    TMP DP  RH WIND       PRES   REMARKS
DULUTH         LGT SNOW  14   8  77 NE15      30.02S VSB 3/4 WCI  -1
ELY            PTSUNNY    9   0  66 NE9       30.09R WCI  -5
HIBBING        CLOUDY    10   0  63 N14G20    30.06S WCI  -6
EVELETH        FAIR     N/A N/A N/A NE12      30.07S
DULUTH HARBOR  SNOW      18  16  93 NE23G32   30.08S VSB 1/2 WCI   0
TWO HARBORS    LGT SNOW  18  10  73 NE10      30.05S WCI   6
G MARAIS ARPRT CLOUDY     9  -2  61 N12       30.04S WCI  -6
$$
MNZ029>031-032-039>041-046>048-054>057-064-192100-
   West Central Minnesota

CITY           SKY/WX    TMP DP  RH WIND       PRES   REMARKS
FERGUS FALLS   CLOUDY    14   0  52 NE13G21   30.05F WCI   0
WHEATON        FLURRIES  16   3  57 N14G20    30.06F WCI   1
MORRIS         CLOUDY    16   9  73 N17G24    29.98F WCI   0
ALEXANDRIA     CLOUDY    14   7  73 NE15      29.97F WCI  -1
ELBOW LAKE     CLOUDY    14   5  69 NE14      30.02F WCI  -1
WADENA         FAIR      12   1  62 NE14G20   30.01S WCI  -3
GLENWOOD       CLOUDY    14   9  79 NE21      29.95S WCI  -4
APPLETON       CLOUDY    18  10  73 N18       29.97S WCI   2
BENSON         CLOUDY    16   9  73 NE16G23   29.97F WCI   0
MADISON        LGT SNOW  18  12  79 N17       29.98R WCI   2
WILLMAR        CLOUDY    16  10  79 NE23      29.92F WCI  -2
$$
MNZ033>034-036-042>043-049>051-058-059-192100-
   Central Minnesota

CITY           SKY/WX    TMP DP  RH WIND       PRES   REMARKS
ST CLOUD       CLOUDY    15   9  76 N13G20    29.93F HAZE    WCI   1
SAUK CENTRE    CLOUDY    14   7  74 N12G21    29.96F WCI   0
PAYNESVILLE    CLOUDY    15  10  80 NE20G28   29.92F WCI  -2
AITKIN         LGT SNOW  10   3  72 N15       30.01F WCI  -6
PINE RIVER     FAIR      12   1  62 N15       30.06S WCI  -4
BRAINERD       LGT SNOW  14   5  67 N14       30.01F WCI  -1
STAPLES        FLURRIES  12   3  67 NE10G16   30.01S WCI  -1
LONG PRAIRIE   CLOUDY    14   7  73 N15G22    29.97F WCI  -1
LITTLE FALLS   CLOUDY    14   3  62 N5        29.98F WCI   6
LITCHFIELD     CLOUDY    18  14  86 NE20G26   29.89S WCI   1
BUFFALO        LGT SNOW  18  15  85 N17G23    29.89F VSB 3/4 WCI   3
MAPLE LAKE     LGT SNOW  19  16  86 N14G23    29.90F VSB 1   WCI   6
HUTCHINSON     LGT SNOW  20  17  85 N18G24    29.87S WCI   5
$$
MNZ037-044-045-052-053-192100-
   East Central Minnesota

CITY           SKY/WX    TMP DP  RH WIND       PRES   REMARKS
PRINCETON      LGT SNOW  18  12  79 N17G23    29.92F WCI   2
MORA           LGT SNOW  18  10  73 NE7G17    29.97F WCI   8
CAMBRIDGE      LGT SNOW  19  12  73 N10       29.92F WCI   8
RUSH CITY      LGT SNOW  19  15  84 NE13G18   29.94F WCI   7
MOOSE LAKE     LGT SNOW  16  10  79 NE13      30.00F WCI   2
HINCKLEY       LGT SNOW  19  14  79 NE13G20   29.97F WCI   7
CLOQUET        LGT SNOW  14   9  79 NE9G16    30.02F WCI   2
MCGREGOR       CLOUDY    14   9  79 N13G18    30.03F WCI   0
$$
MNZ071>073-080-081-089-090-097-098-192100-
   Southwest Minnesota

CITY           SKY/WX    TMP DP  RH WIND       PRES   REMARKS
MONTEVIDEO     CLOUDY    16  10  79 NE18G24   29.94F WCI  -1
GRANITE FALLS  CLOUDY    18  13  80 N14G25    29.94S WCI   5
CANBY          LGT SNOW  15  12  85 N15G22    29.96R WCI   0
MARSHALL       FLURRIES  15  11  83 N21       29.91S WCI  -2
REDWOOD FALLS  LGT SNOW  19  14  81 N10G21    29.88F WCI   7
OLIVIA         CLOUDY    21  14  73 NE18G25   29.89S WCI   6
PIPESTONE      LGT SNOW  14  10  85 NE22G29   29.83S WCI  -4
WINDOM         CLOUDY    18   5  57 N18       29.81S HAZE    WCI   2
WORTHINGTON    LGT SNOW  17  14  88 N23       29.80F FOG     WCI  -1
JACKSON        CLOUDY    19  16  86 VRB15G23  29.79S FOG     WCI   5
TRACY          LGT SNOW  18  15  91 N21       29.86F WCI   1
SLAYTON        LGT SNOW  16  13  91 N18G25    29.82F WCI  -1
$$
MNZ065>067-074>077-082>085-091>093-192100-
   South Central Minnesota

CITY           SKY/WX    TMP DP  RH WIND       PRES   REMARKS
NEW ULM        CLOUDY    19  16  86 NE14      29.84S WCI   6
ST JAMES       CLOUDY    19  18  93 N15       29.83S WCI   5
FAIRMONT       MIX PCPN  22  20  92 MISG      29.79R FOG
GLENCOE        LGT SNOW  21  18  88 N9G23     29.85F WCI  11
FARIBAULT      MIX PCPN  25  21  86 N16       29.80R WCI  12
OWATONNA       MIX PCPN  27  25  93 N12       29.77R WCI  16
WASECA         MIX PCPN  25  23  93 NE13      29.78F WCI  13
ALBERT LEA     CLOUDY    27  25  93 NE12      29.73S FOG     WCI  16
$$
MNZ078>079-086>088-094>096-192100-
   Southeast Minnesota

CITY           SKY/WX    TMP DP  RH WIND       PRES   REMARKS
ROCHESTER      FRZ RAIN  28  27  96 NE21G30   29.71F FOG     WCI  15
RED WING       MIX PCPN  27  19  74 E9G18     29.82S WCI  17
STANTON        CLOUDY    26  23  87 NE17G24   29.79S FOG     WCI  13
DODGE CENTER   CLOUDY    25  25 100 NE15      29.72F FOG     WCI  12
WINONA         CLOUDY    32  30  93 NE6       29.75F WCI  26
AUSTIN         LGT SNOW  28  27  93 NE9       29.72R WCI  20
PRESTON        CLOUDY    32  30  94 NE12      29.70F FOG     WCI  23
$$
ABBREVIATIONS USED IN REMARKS
   TC - TEMPERATURES IN CELSIUS
  WCI - WIND CHILL INDEX
   HX - HEAT INDEX
  VSB - VISIBILITY
$$



USA.gov is the U.S. government's official web portal to all federal, state and local government web resources and services.